DECAYED

ISS DEB, 69324 (Decayed)

Orbit data source: Space-Track

ISS DEB, 69324 was space debris in LEO that was on an ISS related-mission or a former payload that was launched from the ISS. Debris objects in space refer to the collection of defunct objects orbiting the Earth. Examples of debris include non-operational satellites, rocket bodies, and fragments generated from explosions, collisions, or faulty payload assembly.

Not visible in the next 10 days
Identifier
69324, 1998-067YG
Orbit
Decayed
Country
Flag of CISCIS
Related business
Manufacturer
RKKE
Mission
Decayed spacecraft
Bus & Motor
Unknown
Mass
Unknown
Launch date (UTC)
1998-11-20 (28 years ago)
Launch vehicle
Unknown
Launch site
Tyuratam Missile And Space Complex (TTMTR)
Object type
Payload
Rocket body
Debris
Shape & HBR
IRR, 0.1 m
Radar Cross Section
Medium (>0.1 m² and <1 m²)

Expand to show TLE details & history
Last TLE update: 1 month ago

TLE from 1 month ago
0 ISS DEB
1 69324U 98067YG  26226.64297546  .05791217  11873-4  31596-2 0  9997
2 69324  51.6052   0.3255 0018780 316.0977  43.8547 16.18437754580951
Epoch: 2026-08-14T15:25Z
TLE epoch observation values (Epoch: 2026-08-14T15:25:53.079Z)
Latitude
-0.00005°
Longitude
165.78903°
Altitude
215.627 km
Speed
7.784 km/s
True Right ascension
00h 01m 18s
True Declination
0° 00' 00"
Sunlit
Object was in full shadow at epoch
Visualization orbit readout
Latitude
Unknown
Longitude
Unknown
Altitude
Unknown
Speed
Unknown
Apparent Right ascension
Unknown
Apparent Declination
Unknown
Sunlit
N/A
Visualization observer readout
Local Sidereal Time
01:48:40
Azimuth
Unknown
Elevation
Unknown
Doppler factor
Unknown
Orbital elements
Apogee altitude
236.725 km
Perigee altitude
211.926 km
Semi-major axis
6,602.462 km
Eccentricity
0.00188
Inclination
51.6052°
RAAN
0.3255°
Arg. of periapsis
316.0977°
True anomaly
44.00405°
Mean anomaly
43.8547°
Eccentric anomaly
43.92935°
Mean motion
4.04561 °/min
Orbital period
88.99 mins
BSTAR
0.0031596
Loading maneuver chart data...
Computing Atmospheric mass density...

Documentation

Showing up to 5 results
|